MDT,Max TemperatureF,Mean TemperatureF,Min TemperatureF,Max Dew PointF,MeanDew PointF,Min DewpointF,Max Humidity, Mean Humidity, Min Humidity, Max Sea Level PressureIn, Mean Sea Level PressureIn, Min Sea Level PressureIn, Max VisibilityMiles, Mean VisibilityMiles, Min VisibilityMiles, Max Wind SpeedMPH, Mean Wind SpeedMPH, Max Gust SpeedMPH,PrecipitationIn, CloudCover, Events, WindDirDegrees
2013-9-1,78,55,32,48,43,33,100,58,28,30.09,30.00,29.93,15,15,15,14,6,,0.00,0,,201
2013-9-2,78,59,40,54,47,38,93,59,29,30.00,29.98,29.95,15,15,15,12,7,,0.00,6,,284
2013-9-3,69,58,47,56,51,46,94,70,45,30.16,30.12,30.07,20,16,15,12,8,,0.00,7,,193
2013-9-4,83,64,44,55,47,43,100,54,18,30.14,30.09,30.05,15,15,15,12,7,17,0.00,1,,250
2013-9-5,80,62,45,57,51,45,93,58,30,30.14,30.08,30.01,20,16,15,12,6,,0.00,5,,332
2013-9-6,62,58,54,55,55,54,100,88,71,30.25,30.20,30.13,20,10,3,13,6,,0.47,8,Rain-Thunderstorm,26
2013-9-7,56,54,52,55,54,53,100,98,94,30.28,30.23,30.14,20,7,2,8,4,,0.67,8,Rain,59
2013-9-8,70,58,45,55,52,46,100,84,56,30.07,30.00,29.92,20,9,0,15,6,17,0.12,4,Fog-Thunderstorm,311
2013-9-9,73,60,46,54,49,46,97,64,34,30.02,29.98,29.94,15,15,15,10,7,,0.00,2,,255
2013-9-10,73,55,37,50,46,39,100,66,36,30.23,30.14,30.10,15,15,15,9,6,,0.00,1,,74
2013-9-11,73,56,38,54,47,37,100,65,35,30.37,30.34,30.31,20,16,15,12,7,18,0.00,0,,179
2013-9-12,80,60,39,54,49,43,100,68,32,30.26,30.15,30.03,15,11,6,17,7,24,0.00,0,Fog,163
2013-9-13,78,60,43,52,49,45,93,58,32,30.03,29.97,29.94,15,15,15,16,10,24,0.00,1,,350
2013-9-14,72,60,49,55,51,43,94,66,40,30.18,30.13,30.08,20,14,8,18,7,28,0.00,2,,148
2013-9-15,76,58,41,51,45,39,93,56,24,30.10,29.99,29.85,20,18,15,21,9,29,0.00,2,,155
2013-9-16,77,59,41,52,46,41,100,61,32,29.74,29.68,29.61,20,16,15,29,9,40,0.00,2,,274
2013-9-17,69,55,41,46,43,39,82,61,28,29.78,29.74,29.69,20,16,15,14,7,22,0.00,5,Rain,325
2013-9-18,44,42,40,43,41,41,100,95,87,30.12,29.99,29.86,20,8,3,12,8,,0.47,8,Rain,303
2013-9-19,62,46,31,43,38,33,100,68,32,30.19,30.11,29.97,20,16,15,10,5,,0.02,2,,238
2013-9-20,69,50,31,46,39,30,87,60,33,29.96,29.84,29.69,20,16,15,8,5,,0.00,3,,272
2013-9-21,73,54,35,45,38,32,93,61,33,29.66,29.57,29.45,15,15,15,26,10,37,0.00,5,,285
2013-9-22,64,49,34,39,36,31,81,56,32,29.64,29.55,29.48,20,16,15,16,8,17,0.00,4,,272
2013-9-23,61,48,35,37,32,27,81,50,24,29.82,29.67,29.54,20,16,15,26,13,36,0.00,3,,269
2013-9-24,56,43,30,36,31,27,81,60,34,29.93,29.87,29.82,15,15,15,12,7,,0.00,7,,11
2013-9-25,50,42,35,34,32,28,81,64,39,30.14,30.03,29.94,20,17,15,15,12,21,0.00,6,Rain,347
2013-9-26,48,40,32,36,33,31,93,74,50,30.21,30.12,29.94,20,17,15,14,8,,0.00,6,,359
2013-9-27,55,37,19,34,26,19,100,61,22,29.94,29.85,29.79,20,13,6,20,9,29,0.00,4,Fog,288
2013-9-28,59,40,20,37,31,19,86,63,39,29.80,29.63,29.31,15,15,15,20,7,21,0.00,5,,171
2013-9-29,58,46,35,36,30,27,81,49,26,29.51,29.35,29.10,15,15,15,32,15,48,0.00,4,,266
2013-9-30,52,40,27,32,25,21,93,52,22,29.68,29.39,29.24,20,16,15,36,13,50,0.00,5,,284